Hourly Data Report for July 27, 2020

OTTAWA INTL A
ONTARIO
Current Station Operator: NAVCAN

45°19'00.000" N
75°40'00.000" W
114.90 m
6106001
71628
YOW

Download Data

Hourly Data (July 2020)
Hourly Data Report for July 27, 2020
TIME Temp Definition
°C
Dew Point Definition
°C
Rel Hum Definition
%
Wind Dir Definition
10's deg

Wind Spd Definition
km/h
Visibility Definition
km
Stn Press Definition
kPa
Hmdx Definition


Wind Chill Definition


Weather Definition


00:00 27.9 21.9 69 24 13 24.1 99.39 37   LegendNANA
01:00 26.8 21.6 73 22 12 24.1 99.36 36   Cloudy
02:00 26.3 22.4 79 22 15 24.1 99.31 36   LegendNANA
03:00 25.2 22.1 83 22 17 24.1 99.27 35   LegendNANA
04:00 24.3 21.9 86 23 13 24.1 99.27 34   Cloudy
05:00 23.7 22.2 91 22 9 24.1 99.28 33   LegendNANA
06:00 24.2 22.2 88 21 16 16.1 99.27 34   Rain Showers
07:00 24.3 22.0 87 20 11 24.1 99.25 34   Cloudy
08:00 24.2 21.4 84 21 14 24.1 99.22 33   LegendNANA
09:00 25.9 22.0 79 21 17 24.1 99.12 35   LegendNANA
10:00 28.3 22.1 68 22 19 24.1 99.07 38   Mostly Cloudy
11:00 29.7 22.5 65 22 23 24.1 99.04 39   LegendNANA
12:00 26.4 23.4 83 27 19 24.1 99.01 37   Rain Showers
13:00 28.2 24.6 81 27 22 24.1 99.00 40   Rain Showers
14:00 27.6 24.4 83 28 16 24.1 98.99 39   LegendNANA
15:00 30.6 22.1 60 29 24 24.1 98.97 40   LegendNANA
16:00 30.6 20.8 55 29 22 24.1 98.93 39   Clear
17:00 31.1 20.3 52 30 19 24.1 98.89 39   LegendNANA
18:00 28.7 21.1 63 22 11 9.7 98.92 37   Rain Showers,Fog
19:00 24.3 22.9 92 7 5 24.1 98.95 34   Mostly Cloudy
20:00 23.6 22.4 93 20 6 24.1 98.96 33   LegendNANA
21:00 24.5 22.4 88 25 12 24.1 99.01 34   LegendNANA
22:00 24.2 21.4 84 25 11 24.1 98.99 33   Cloudy
23:00 23.6 20.9 85 25 13 24.1 99.01 32   LegendNANA

Notes on Data Quality.

Legend

  • E = Estimated
  • M = Missing
  • NA = Not Available*
  • [empty] = Indicates an unobserved value
Date modified: